Content
SEND FEEDBACK

Daily
Averages
Monthly
Summary
Canada

VANCOUVER, BRITISH COLUMBIA


Home > North America > Canada > British Columbia
Elevation: 2 meters     Latitude: 49 11N     Longitude: 123 10W

WEATHER
 
SELECT A DAY
Number of Records: 254,007;   Date Range: 5/15/97 - 11/23/14
 
SHARE

PRINT THIS DATA

[ ← Previous Day ]
WEATHER ALMANAC - 10 MAY, 2013
[ Next Day → ]
[ °F ]   °C
Weather ElementAverageHighLow
Temperature12.9 °C18 °C (4:55 pm)8 °C (6:35 am)
Dewpoint9.5 °C12 °C (4:15 pm)8 °C (12:55 am)
Humidity80.7 %100 % (6:35 am)63 % (7:15 pm)
Barometer1021.3 hPa1022.7 hPa (9:55 am)1019.6 hPa (6:35 pm)
Wind Speed4.8 km/h13 km/h (5:15 am)
Weather ElementAverage
Visibility15.4 km
Wind DirectionESE (116.4 °)

Weather ElementTotal
Precipitation---
Heating Degree Days5.3 (Base 18.3)
Growing Degree Days3 (Base 10)
Averaged from 61 records on 10 May, 2013
WEATHER CONDITIONS BREAKOUT
WIND DIRECTION BREAKOUT
WEATHER BY HOUR - 10 MAY, 2013
[ °F ]   °C
Local TimeTemperatureDewpointHumidityBarometerVisibilityWind DirectionWind SpeedGust SpeedPrecipitationEventsConditions
12:55 AM10 °C8 °C87 %1021 hPa16.1 kmSouth (170°)7.4 km/hClear
1:15 AM10 °C8 °C87 %1021 hPa16.1 kmSouth (180°)9.3 km/hClear
1:55 AM10 °C8 °C87 %1021.3 hPa16.1 kmSSE (160°)5.6 km/hClear
2:15 AM10 °C8 °C87 %1021.3 hPa16.1 kmCalmClear
3:15 AM10 °C8 °C87 %1021.7 hPa16.1 kmSSW (200°)9.3 km/hClear
3:35 AM10 °C8 °C87 %1021.7 hPa16.1 kmSouth (170°)5.6 km/hClear
4:15 AM10 °C8 °C87 %1021.7 hPa16.1 kmSSW (210°)7.4 km/hClear
4:35 AM9 °C8 °C93 %1021.7 hPa16.1 kmSouth (170°)5.6 km/hClear
4:55 AM9 °C8 °C93 %1021.7 hPa16.1 kmSE (140°)9.3 km/hClear
5:15 AM9 °C8 °C93 %1021.7 hPa16.1 kmSouth (180°)13 km/hClear
5:35 AM9 °C8 °C93 %1021.7 hPa14.5 kmSouth (180°)7.4 km/hClear
5:55 AM9 °C8 °C93 %1021.7 hPa11.3 kmSouth (180°)7.4 km/hClear
6:15 AM9 °C8 °C93 %1022 hPa12.9 kmCalmClear
6:35 AM8 °C8 °C100 %1022.4 hPa12.9 kmCalmClear
6:55 AM9 °C8 °C93 %1022.4 hPa14.5 kmCalmClear
7:15 AM9 °C8 °C93 %1022.4 hPa14.5 kmCalmClear
7:35 AM10 °C9 °C94 %1022.4 hPa14.5 kmNorthClear
7:55 AM10 °C9 °C94 %1022.4 hPa14.5 kmSouth (170°)5.6 km/hClear
8:15 AM10 °C8 °C87 %1022.4 hPa16.1 kmSouth (180°)7.4 km/hClear
8:35 AM10 °C9 °C94 %1022.4 hPa16.1 kmSSW (200°)13 km/hClear
9:15 AM12 °C9 °C82 %1022.4 hPa14.5 kmSouth (190°)11.1 km/hClear
9:55 AM11 °C9 °C88 %1022.7 hPa14.5 kmCalmClear
10:15 AM12 °C9 °C82 %1022.7 hPa16.1 kmCalmClear
10:35 AM13 °C10 °C82 %1022.7 hPa16.1 kmSSW (200°)11.1 km/hClear
10:55 AM13 °C10 °C82 %1022.4 hPa16.1 kmSSW (200°)11.1 km/hClear
11:15 AM13 °C10 °C82 %1022.7 hPa16.1 kmNorth (360°)7.4 km/hClear
11:35 AM13 °C10 °C82 %1022.7 hPa14.5 kmCalmClear
11:55 AM13 °C10 °C82 %1022.7 hPa14.5 kmCalmClear
12:15 PM13 °C10 °C82 %1022.4 hPa16.1 kmCalmClear
12:35 PM14 °C10 °C77 %1022.4 hPa16.1 kmCalmClear
1:15 PM15 °C10 °C72 %1022 hPa16.1 kmNorth (10°)7.4 km/hClear
1:35 PM15 °C10 °C72 %1022 hPa16.1 kmCalmClear
1:55 PM15 °C10 °C72 %1021.7 hPa14.5 kmNorth (360°)9.3 km/hClear
2:15 PM16 °C10 °C68 %1021.7 hPa16.1 kmNorth (360°)5.6 km/hClear
2:35 PM15 °C10 °C72 %1021.3 hPa14.5 kmNorth (350°)7.4 km/hClear
2:55 PM15 °C10 °C72 %1021.3 hPa16.1 kmCalmClear
3:15 PM15 °C10 °C72 %1021.3 hPa16.1 kmNorth (10°)5.6 km/hClear
3:35 PM15 °C10 °C72 %1021 hPa14.5 kmCalmClear
3:55 PM17 °C11 °C68 %1021 hPa16.1 kmCalmClear
4:15 PM17 °C12 °C72 %1020.7 hPa14.5 kmCalmClear
4:35 PM17 °C12 °C72 %1020.3 hPa16.1 kmCalmClear
4:55 PM18 °C12 °C68 %1020.3 hPa16.1 kmCalmClear
5:15 PM17 °C12 °C72 %1020.3 hPa16.1 kmSouth (190°)7.4 km/hClear
5:35 PM18 °C12 °C68 %1020.3 hPa16.1 kmSouth (190°)7.4 km/hClear
5:55 PM17 °C12 °C72 %1020.3 hPa14.5 kmSSE (160°)5.6 km/hClear
6:15 PM17 °C12 °C72 %1020 hPa16.1 kmSouth (170°)5.6 km/hClear
6:35 PM17 °C11 °C68 %1019.6 hPa16.1 kmCalmClear
6:55 PM16 °C10 °C68 %1019.6 hPa16.1 kmSouth (170°)5.6 km/hClear
7:15 PM17 °C10 °C63 %1019.6 hPa16.1 kmSSE (160°)5.6 km/hClear
7:35 PM16 °C10 °C68 %1019.6 hPa16.1 kmSSE (160°)5.6 km/hClear
7:55 PM15 °C10 °C72 %1019.6 hPa14.5 kmSouth (170°)5.6 km/hClear
8:15 PM14 °C10 °C77 %1019.6 hPa16.1 kmCalmClear
8:55 PM14 °C10 °C77 %1019.6 hPa16.1 kmSouth (170°)5.6 km/hClear
9:15 PM14 °C10 °C77 %1020 hPa16.1 kmSouth (170°)5.6 km/hClear
9:35 PM13 °C10 °C82 %1020 hPa16.1 kmSouth (170°)5.6 km/hClear
9:55 PM13 °C9 °C77 %1020 hPa16.1 kmSouth (170°)5.6 km/hClear
10:15 PM13 °C9 °C77 %1020 hPa16.1 kmCalmClear
10:35 PM13 °C9 °C77 %1020 hPa16.1 kmCalmClear
11:15 PM12 °C9 °C82 %1020.3 hPa16.1 kmSouth (170°)7.4 km/hClear
11:35 PM11 °C9 °C88 %1020.3 hPa16.1 kmSouth (190°)13 km/hClear
11:55 PM11 °C9 °C88 %1020.3 hPa16.1 kmSSE (160°)5.6 km/hClear
Hourly data recorded from CZBB, located 0 kilometers away from Vancouver, British Columbia







STORIES FROM OUR PARTNERS